Home   Weather   Limassol   Past weeks

Flag for Cyprus Past Weather in Limassol, Cyprus — Yesterday and Last 2 Weeks

Now
61 °F

Partly sunny.


Feels Like: 61 °F
Forecast: 47 / 64 °F
Wind: 10 mph from East

Location: Akrotiri

Current Time: Jan 16, 2017 at 2:58:18 pm

Latest Report: Jan 16, 2017 at 1:50 pm


Visibility: N/A

Pressure: 30.12 "Hg

Humidity: 72%

Dew Point: 52 °F

Location of LimassolLocation

Past Weather in Limassol — Graph

°F

Limassol Temperature Yesterday

Maximum temperature yesterday: 61 °F (at 10:50 am)
Minimum temperature yesterday: 48 °F (at 7:50 am)
Average temperature yesterday: 56 °F

High & Low Weather Summary for the Past Weeks

 TemperatureHumidityPressure
High64 °F (Jan 5, 11:50 am)100% (Jan 5, 4:50 am)30.30 "Hg (Jan 5, 4:50 am)
Low43 °F (Jan 3, 6:50 am)33% (Jan 9, 2:50 pm)29.68 "Hg (Jan 8, 12:50 pm)
Average54 °F70%30.05 "Hg
* Reported Jan 1 12:50 pm — Jan 16 12:50 pm, Limassol, Weather by CustomWeather, © 2017

Note: Actual official high and low records may vary slightly from our data, if they occured in-between our weather recording intervals... More about our weather records

Advertising

Limassol Weather History for the Previous 24 Hours

Scroll right to see more
 ConditionsComfort  
Time TempWeatherWind HumidityBarometerVisibility
12:50 pm
Mon, Jan 16
61 °FPartly sunny.10 mph72%30.12 "HgN/A
11:50 am61 °FPartly sunny.10 mph72%30.15 "HgN/A
10:50 am61 °FPartly sunny.10 mph72%30.15 "HgN/A
9:50 am59 °FPartly sunny.12 mph72%30.18 "HgN/A
8:50 am57 °FPartly sunny.10 mph77%30.15 "HgN/A
7:50 am55 °FPartly sunny.12 mph82%30.15 "HgN/A
6:50 am55 °FPassing clouds.12 mph82%30.15 "HgN/A
5:50 am55 °FPassing clouds.10 mph82%30.12 "HgN/A
4:50 am55 °FPassing clouds.9 mph82%30.12 "HgN/A
3:50 am55 °FPassing clouds.12 mph82%30.12 "HgN/A
2:50 am57 °FPassing clouds.9 mph77%30.15 "HgN/A
1:50 am57 °FPassing clouds.7 mph77%30.15 "HgN/A
12:52 am55 °FPartly cloudy.5 mph77%30.15 "HgN/A
11:50 pm
Sun, Jan 15
55 °FPassing clouds.3 mph77%30.15 "HgN/A
10:50 pm54 °FPartly cloudy.2 mph88%30.15 "HgN/A
9:50 pm54 °FPassing clouds.2 mph82%30.12 "HgN/A
8:50 pm55 °FPassing clouds.2 mph77%30.12 "HgN/A
7:50 pm55 °FPassing clouds.2 mph77%30.12 "HgN/A
6:50 pm57 °FPassing clouds.2 mph67%30.12 "HgN/A
5:50 pm57 °FPassing clouds.3 mph67%30.09 "HgN/A
4:50 pm59 °FPartly sunny.6 mph68%30.09 "HgN/A
3:50 pm59 °FPartly sunny.5 mph68%30.07 "HgN/A
2:50 pm59 °FPartly sunny.6 mph68%30.07 "HgN/A
Weather by CustomWeather, © 2017

See weather overviewHow to use our weather pages